Time,TemperatureF,DewpointF,PressureIn,WindDirection,WindDirectionDegrees,WindSpeedMPH,WindSpeedGustMPH,Humidity,HourlyPrecipIn,Conditions,Clouds,dailyrainin,SoftwareType,DateUTC
2013-04-02 00:00:00,23.5,14.2,30.06,North,360,1.0,12.0,67,0.00,,---,0.01,VWS V14.01,2013-04-02 04:00:00,
2013-04-02 00:05:00,23.6,13.9,30.06,North,360,2.0,3.0,66,0.00,,---,0.00,VWS V14.01,2013-04-02 04:05:00,
2013-04-02 00:10:00,23.5,13.8,30.06,North,360,0.0,4.0,66,0.00,,---,0.00,VWS V14.01,2013-04-02 04:10:00,
2013-04-02 00:15:00,23.5,13.5,30.06,North,360,2.0,4.0,65,0.00,,---,0.00,VWS V14.01,2013-04-02 04:15:00,
2013-04-02 00:20:00,23.4,13.4,30.06,North,360,1.0,4.0,65,0.00,,---,0.00,VWS V14.01,2013-04-02 04:20:00,
2013-04-02 00:25:00,23.3,12.9,30.06,North,360,2.0,4.0,64,0.00,,---,0.00,VWS V14.01,2013-04-02 04:25:00,
2013-04-02 00:30:00,23.2,12.8,30.06,North,360,1.0,4.0,64,0.00,,---,0.00,VWS V14.01,2013-04-02 04:30:00,
2013-04-02 00:35:00,23.1,13.1,30.06,North,360,2.0,4.0,65,0.00,,---,0.00,VWS V14.01,2013-04-02 04:35:00,
2013-04-02 00:40:00,23.1,13.1,30.06,North,360,3.0,4.0,65,0.00,,---,0.00,VWS V14.01,2013-04-02 04:40:00,
2013-04-02 00:45:00,23.1,13.1,30.05,North,360,0.0,4.0,65,0.00,,---,0.00,VWS V14.01,2013-04-02 04:45:00,
2013-04-02 00:50:00,23.3,13.3,30.06,North,360,0.0,4.0,65,0.00,,---,0.00,VWS V14.01,2013-04-02 04:50:00,
2013-04-02 00:55:00,23.4,13.7,30.06,North,360,2.0,4.0,66,0.00,,---,0.00,VWS V14.01,2013-04-02 04:55:00,
2013-04-02 01:00:00,23.5,14.2,30.06,North,360,1.0,4.0,67,0.00,,---,0.00,VWS V14.01,2013-04-02 05:00:00,
2013-04-02 01:05:00,23.7,15.0,30.06,North,360,0.0,7.0,69,0.00,,---,0.00,VWS V14.01,2013-04-02 05:05:00,
2013-04-02 01:10:00,24.0,16.6,30.06,North,360,10.0,10.0,73,0.00,,---,0.00,VWS V14.01,2013-04-02 05:10:00,
2013-04-02 01:15:00,26.6,17.5,30.06,NE,49,10.0,20.0,68,0.00,,---,0.00,VWS V14.01,2013-04-02 05:15:00,
2013-04-02 01:20:00,27.9,17.0,30.06,North,360,10.0,21.0,63,0.00,,---,0.00,VWS V14.01,2013-04-02 05:20:00,
2013-04-02 01:25:00,28.3,17.7,30.06,North,360,15.0,23.0,64,0.00,,---,0.00,VWS V14.01,2013-04-02 05:25:00,
2013-04-02 01:30:00,28.3,17.3,30.06,North,360,12.0,23.0,63,0.00,,---,0.00,VWS V14.01,2013-04-02 05:30:00,
2013-04-02 01:35:00,28.2,18.0,30.06,North,360,14.0,23.0,65,0.00,,---,0.00,VWS V14.01,2013-04-02 05:35:00,
2013-04-02 01:40:00,28.1,18.2,30.06,North,360,13.0,23.0,66,0.00,,---,0.00,VWS V14.01,2013-04-02 05:40:00,
2013-04-02 01:45:00,28.2,17.6,30.06,North,360,11.0,23.0,64,0.00,,---,0.00,VWS V14.01,2013-04-02 05:45:00,
2013-04-02 01:50:00,28.3,18.4,30.06,North,360,4.0,23.0,66,0.00,,---,0.00,VWS V14.01,2013-04-02 05:50:00,
2013-04-02 01:55:00,28.3,18.1,30.07,North,360,16.0,23.0,65,0.00,,---,0.00,VWS V14.01,2013-04-02 05:55:00,
2013-04-02 02:00:00,28.2,18.7,30.07,North,360,12.0,13.0,67,0.00,,---,0.00,VWS V14.01,2013-04-02 06:00:00,
2013-04-02 02:05:00,28.1,18.9,30.07,North,360,11.0,17.0,68,0.00,,---,0.00,VWS V14.01,2013-04-02 06:05:00,
2013-04-02 02:10:00,27.9,18.4,30.07,North,360,9.0,19.0,67,0.00,,---,0.00,VWS V14.01,2013-04-02 06:10:00,
2013-04-02 02:15:00,27.5,19.4,30.07,North,360,7.0,19.0,71,0.00,,---,0.00,VWS V14.01,2013-04-02 06:15:00,
2013-04-02 02:20:00,27.2,18.0,30.07,North,360,2.0,19.0,68,0.00,,---,0.00,VWS V14.01,2013-04-02 06:20:00,
2013-04-02 02:25:00,27.6,18.1,30.07,North,360,13.0,22.0,67,0.00,,---,0.00,VWS V14.01,2013-04-02 06:25:00,
2013-04-02 02:30:00,27.7,17.8,30.07,North,360,21.0,22.0,66,0.00,,---,0.00,VWS V14.01,2013-04-02 06:30:00,
2013-04-02 02:35:00,27.8,17.6,30.07,North,360,13.0,22.0,65,0.00,,---,0.00,VWS V14.01,2013-04-02 06:35:00,
2013-04-02 02:40:00,27.9,18.0,30.07,North,360,18.0,22.0,66,0.00,,---,0.00,VWS V14.01,2013-04-02 06:40:00,
2013-04-02 02:45:00,27.9,19.1,30.07,North,360,10.0,22.0,69,0.00,,---,0.00,VWS V14.01,2013-04-02 06:45:00,
2013-04-02 02:50:00,27.9,18.7,30.07,North,360,6.0,22.0,68,0.00,,---,0.00,VWS V14.01,2013-04-02 06:50:00,
2013-04-02 02:55:00,27.9,18.4,30.07,North,360,17.0,22.0,67,0.00,,---,0.00,VWS V14.01,2013-04-02 06:55:00,
2013-04-02 03:00:00,27.9,19.1,30.07,North,360,14.0,22.0,69,0.00,,---,0.00,VWS V14.01,2013-04-02 07:00:00,
2013-04-02 03:05:00,27.1,19.3,30.07,North,360,12.0,22.0,72,0.00,,---,0.00,VWS V14.01,2013-04-02 07:05:00,
2013-04-02 03:10:00,27.0,19.2,30.08,North,360,5.0,22.0,72,0.00,,---,0.00,VWS V14.01,2013-04-02 07:10:00,
2013-04-02 03:15:00,27.2,18.0,30.08,ENE,78,7.0,22.0,68,0.00,,---,0.00,VWS V14.01,2013-04-02 07:15:00,
2013-04-02 03:20:00,27.4,18.2,30.08,North,360,6.0,22.0,68,0.00,,---,0.00,VWS V14.01,2013-04-02 07:20:00,
2013-04-02 03:25:00,27.5,17.6,30.07,North,360,15.0,22.0,66,0.00,,---,0.00,VWS V14.01,2013-04-02 07:25:00,
2013-04-02 03:30:00,27.4,17.2,30.07,North,360,15.0,22.0,65,0.00,,---,0.00,VWS V14.01,2013-04-02 07:30:00,
2013-04-02 03:35:00,27.4,17.2,30.08,North,360,12.0,22.0,65,0.00,,---,0.00,VWS V14.01,2013-04-02 07:35:00,
2013-04-02 03:40:00,27.2,16.3,30.08,North,360,8.0,22.0,63,0.00,,---,0.00,VWS V14.01,2013-04-02 07:40:00,
2013-04-02 03:45:00,27.1,15.4,30.08,North,360,10.0,22.0,61,0.00,,---,0.00,VWS V14.01,2013-04-02 07:45:00,
2013-04-02 03:50:00,27.0,16.5,30.08,North,360,7.0,22.0,64,0.00,,---,0.00,VWS V14.01,2013-04-02 07:50:00,
2013-04-02 03:55:00,27.2,17.4,30.07,North,360,14.0,22.0,66,0.00,,---,0.00,VWS V14.01,2013-04-02 07:55:00,
2013-04-02 04:00:00,27.2,16.6,30.08,North,360,9.0,14.0,64,0.00,,---,0.00,VWS V14.01,2013-04-02 08:00:00,
2013-04-02 04:05:00,27.2,16.6,30.07,North,360,7.0,16.0,64,0.00,,---,0.00,VWS V14.01,2013-04-02 08:05:00,
2013-04-02 04:10:00,27.1,16.9,30.07,North,360,10.0,17.0,65,0.00,,---,0.00,VWS V14.01,2013-04-02 08:10:00,
2013-04-02 04:15:00,27.1,16.9,30.08,North,360,14.0,17.0,65,0.00,,---,0.00,VWS V14.01,2013-04-02 08:15:00,
2013-04-02 04:20:00,27.1,16.9,30.07,North,360,14.0,18.0,65,0.00,,---,0.00,VWS V14.01,2013-04-02 08:20:00,
2013-04-02 04:25:00,27.1,17.3,30.07,North,360,13.0,20.0,66,0.00,,---,0.00,VWS V14.01,2013-04-02 08:25:00,
2013-04-02 04:30:00,27.0,16.1,30.07,North,360,11.0,20.0,63,0.00,,---,0.00,VWS V14.01,2013-04-02 08:30:00,
2013-04-02 04:35:00,26.8,15.9,30.07,North,360,14.0,21.0,63,0.00,,---,0.00,VWS V14.01,2013-04-02 08:35:00,
2013-04-02 04:40:00,26.8,15.2,30.07,North,360,17.0,22.0,61,0.00,,---,0.00,VWS V14.01,2013-04-02 08:40:00,
2013-04-02 04:45:00,26.9,16.0,30.07,North,360,12.0,22.0,63,0.00,,---,0.00,VWS V14.01,2013-04-02 08:45:00,
2013-04-02 04:50:00,26.9,16.4,30.07,North,360,10.0,22.0,64,0.00,,---,0.00,VWS V14.01,2013-04-02 08:50:00,
2013-04-02 04:55:00,26.8,15.9,30.07,North,360,9.0,22.0,63,0.00,,---,0.00,VWS V14.01,2013-04-02 08:55:00,
2013-04-02 05:00:00,26.9,16.0,30.08,North,360,13.0,22.0,63,0.00,,---,0.00,VWS V14.01,2013-04-02 09:00:00,
2013-04-02 05:05:00,26.8,15.9,30.08,North,360,11.0,22.0,63,0.00,,---,0.00,VWS V14.01,2013-04-02 09:05:00,
2013-04-02 05:10:00,26.7,16.2,30.08,North,360,11.0,23.0,64,0.00,,---,0.00,VWS V14.01,2013-04-02 09:10:00,
2013-04-02 05:15:00,26.7,16.5,30.08,North,360,14.0,23.0,65,0.00,,---,0.00,VWS V14.01,2013-04-02 09:15:00,
2013-04-02 05:20:00,26.7,15.4,30.08,North,360,15.0,23.0,62,0.00,,---,0.00,VWS V14.01,2013-04-02 09:20:00,
2013-04-02 05:25:00,26.6,15.4,30.08,North,360,2.0,23.0,62,0.00,,---,0.00,VWS V14.01,2013-04-02 09:25:00,
2013-04-02 05:30:00,26.6,16.4,30.08,North,360,9.0,23.0,65,0.00,,---,0.00,VWS V14.01,2013-04-02 09:30:00,
2013-04-02 05:35:00,26.5,15.3,30.08,North,360,16.0,23.0,62,0.00,,---,0.00,VWS V14.01,2013-04-02 09:35:00,
2013-04-02 05:40:00,26.5,15.6,30.08,North,360,13.0,23.0,63,0.00,,---,0.00,VWS V14.01,2013-04-02 09:40:00,
2013-04-02 05:45:00,26.4,14.4,30.09,North,360,15.0,23.0,60,0.00,,---,0.00,VWS V14.01,2013-04-02 09:45:00,
2013-04-02 05:50:00,26.3,14.3,30.09,North,360,14.0,23.0,60,0.00,,---,0.00,VWS V14.01,2013-04-02 09:50:00,
2013-04-02 05:55:00,26.3,14.7,30.09,North,360,14.0,23.0,61,0.00,,---,0.00,VWS V14.01,2013-04-02 09:55:00,
2013-04-02 06:00:00,26.2,15.0,30.09,North,360,12.0,15.0,62,0.00,,---,0.00,VWS V14.01,2013-04-02 10:00:00,
2013-04-02 06:05:00,26.1,13.8,30.09,North,360,12.0,27.0,59,0.00,,---,0.00,VWS V14.01,2013-04-02 10:05:00,
2013-04-02 06:10:00,26.1,14.5,30.09,North,360,10.0,27.0,61,0.00,,---,0.00,VWS V14.01,2013-04-02 10:10:00,
2013-04-02 06:15:00,26.1,14.1,30.09,North,360,13.0,27.0,60,0.00,,---,0.00,VWS V14.01,2013-04-02 10:15:00,
2013-04-02 06:20:00,25.9,13.6,30.09,North,360,6.0,27.0,59,0.00,,---,0.00,VWS V14.01,2013-04-02 10:20:00,
2013-04-02 06:25:00,25.9,14.7,30.09,North,360,7.0,27.0,62,0.00,,---,0.00,VWS V14.01,2013-04-02 10:25:00,
2013-04-02 06:30:00,26.2,15.7,30.09,North,360,13.0,27.0,64,0.00,,---,0.00,VWS V14.01,2013-04-02 10:30:00,
2013-04-02 06:35:00,26.3,16.1,30.09,North,360,9.0,27.0,65,0.00,,---,0.00,VWS V14.01,2013-04-02 10:35:00,
2013-04-02 06:40:00,26.3,16.1,30.10,North,360,21.0,27.0,65,0.00,,---,0.00,VWS V14.01,2013-04-02 10:40:00,
2013-04-02 06:45:00,26.5,16.7,30.10,NW,313,5.0,27.0,66,0.00,,---,0.00,VWS V14.01,2013-04-02 10:45:00,
2013-04-02 06:50:00,26.2,15.3,30.10,North,360,19.0,27.0,63,0.00,,---,0.00,VWS V14.01,2013-04-02 10:50:00,
2013-04-02 06:55:00,26.3,15.4,30.10,North,360,5.0,27.0,63,0.00,,---,0.00,VWS V14.01,2013-04-02 10:55:00,
2013-04-02 07:00:00,26.1,15.6,30.10,North,360,6.0,27.0,64,0.00,,---,0.00,VWS V14.01,2013-04-02 11:00:00,
2013-04-02 07:05:00,26.1,16.0,30.10,North,360,4.0,27.0,65,0.00,,---,0.00,VWS V14.01,2013-04-02 11:05:00,
2013-04-02 07:10:00,26.3,16.1,30.10,North,360,6.0,27.0,65,0.00,,---,0.00,VWS V14.01,2013-04-02 11:10:00,
2013-04-02 07:15:00,26.5,17.4,30.10,North,360,14.0,27.0,68,0.00,,---,0.00,VWS V14.01,2013-04-02 11:15:00,
2013-04-02 07:20:00,26.2,16.1,30.10,North,360,5.0,27.0,65,0.00,,---,0.00,VWS V14.01,2013-04-02 11:20:00,
2013-04-02 07:25:00,26.3,16.1,30.10,North,360,10.0,27.0,65,0.00,,---,0.00,VWS V14.01,2013-04-02 11:25:00,
2013-04-02 07:30:00,26.1,15.6,30.10,North,360,21.0,27.0,64,0.00,,---,0.00,VWS V14.01,2013-04-02 11:30:00,
2013-04-02 07:35:00,26.2,17.1,30.11,North,360,4.0,27.0,68,0.00,,---,0.00,VWS V14.01,2013-04-02 11:35:00,
2013-04-02 07:40:00,25.9,15.4,30.11,North,360,4.0,27.0,64,0.00,,---,0.00,VWS V14.01,2013-04-02 11:40:00,
2013-04-02 07:45:00,26.0,16.2,30.11,North,360,16.0,27.0,66,0.00,,---,0.00,VWS V14.01,2013-04-02 11:45:00,
2013-04-02 07:50:00,26.0,16.2,30.12,North,360,13.0,27.0,66,0.00,,---,0.00,VWS V14.01,2013-04-02 11:50:00,
2013-04-02 07:55:00,26.2,17.1,30.11,North,360,9.0,27.0,68,0.00,,---,0.00,VWS V14.01,2013-04-02 11:55:00,
2013-04-02 08:00:00,26.1,16.3,30.12,North,360,5.0,12.0,66,0.00,,---,0.00,VWS V14.01,2013-04-02 12:00:00,
2013-04-02 08:05:00,26.2,16.1,30.12,North,360,11.0,23.0,65,0.00,,---,0.00,VWS V14.01,2013-04-02 12:05:00,
2013-04-02 08:10:00,25.9,18.1,30.12,North,360,20.0,23.0,72,0.00,,---,0.00,VWS V14.01,2013-04-02 12:10:00,
2013-04-02 08:15:00,25.6,17.8,30.12,North,360,10.0,23.0,72,0.00,,---,0.00,VWS V14.01,2013-04-02 12:15:00,
2013-04-02 08:20:00,25.6,17.8,30.13,North,360,16.0,23.0,72,0.00,,---,0.00,VWS V14.01,2013-04-02 12:20:00,
2013-04-02 08:25:00,25.6,16.5,30.13,North,360,13.0,23.0,68,0.00,,---,0.00,VWS V14.01,2013-04-02 12:25:00,
2013-04-02 08:30:00,25.7,16.3,30.13,North,360,16.0,23.0,67,0.00,,---,0.00,VWS V14.01,2013-04-02 12:30:00,
2013-04-02 08:35:00,25.7,15.6,30.14,North,360,5.0,23.0,65,0.00,,---,0.00,VWS V14.01,2013-04-02 12:35:00,
2013-04-02 08:40:00,25.6,15.8,30.13,North,360,12.0,23.0,66,0.00,,---,0.00,VWS V14.01,2013-04-02 12:40:00,
2013-04-02 08:45:00,25.7,16.3,30.14,North,360,6.0,23.0,67,0.00,,---,0.00,VWS V14.01,2013-04-02 12:45:00,
2013-04-02 08:50:00,25.8,16.0,30.14,North,360,15.0,23.0,66,0.00,,---,0.00,VWS V14.01,2013-04-02 12:50:00,
2013-04-02 08:55:00,25.6,15.8,30.14,North,360,18.0,23.0,66,0.00,,---,0.00,VWS V14.01,2013-04-02 12:55:00,
2013-04-02 09:00:00,25.6,15.5,30.14,North,360,16.0,23.0,65,0.00,,---,0.00,VWS V14.01,2013-04-02 13:00:00,
2013-04-02 09:05:00,25.6,15.8,30.14,North,360,13.0,23.0,66,0.00,,---,0.00,VWS V14.01,2013-04-02 13:05:00,
2013-04-02 09:10:00,25.5,16.1,30.15,North,360,14.0,23.0,67,0.00,,---,0.00,VWS V14.01,2013-04-02 13:10:00,
2013-04-02 09:15:00,25.5,16.4,30.15,North,360,4.0,23.0,68,0.00,,---,0.00,VWS V14.01,2013-04-02 13:15:00,
2013-04-02 09:20:00,25.5,16.4,30.15,North,360,12.0,23.0,68,0.00,,---,0.00,VWS V14.01,2013-04-02 13:20:00,
2013-04-02 09:25:00,25.4,16.3,30.15,East,82,12.0,23.0,68,0.00,,---,0.00,VWS V14.01,2013-04-02 13:25:00,
2013-04-02 09:30:00,25.3,16.6,30.15,North,360,3.0,23.0,69,0.00,,---,0.00,VWS V14.01,2013-04-02 13:30:00,
2013-04-02 09:35:00,25.2,16.1,30.15,North,360,11.0,23.0,68,0.00,,---,0.00,VWS V14.01,2013-04-02 13:35:00,
2013-04-02 09:40:00,24.9,15.2,30.15,East,97,7.0,23.0,66,0.00,,---,0.00,VWS V14.01,2013-04-02 13:40:00,
2013-04-02 09:45:00,25.0,16.3,30.15,North,360,14.0,23.0,69,0.00,,---,0.00,VWS V14.01,2013-04-02 13:45:00,
2013-04-02 09:50:00,25.1,15.7,30.15,North,360,24.0,24.0,67,0.00,,---,0.00,VWS V14.01,2013-04-02 13:50:00,
2013-04-02 09:55:00,24.9,15.2,30.15,NW,323,4.0,24.0,66,0.00,,---,0.00,VWS V14.01,2013-04-02 13:55:00,
2013-04-02 10:00:00,24.9,15.5,30.16,North,360,17.0,24.0,67,0.00,,---,0.00,VWS V14.01,2013-04-02 14:00:00,
2013-04-02 10:05:00,24.8,15.8,30.16,North,360,6.0,22.0,68,0.00,,---,0.00,VWS V14.01,2013-04-02 14:05:00,
2013-04-02 10:10:00,24.8,15.8,30.16,North,360,6.0,22.0,68,0.00,,---,0.00,VWS V14.01,2013-04-02 14:10:00,
2013-04-02 10:15:00,25.0,16.6,30.16,North,360,12.0,22.0,70,0.00,,---,0.00,VWS V14.01,2013-04-02 14:15:00,
2013-04-02 10:20:00,24.9,15.2,30.16,North,360,11.0,24.0,66,0.00,,---,0.00,VWS V14.01,2013-04-02 14:20:00,
2013-04-02 10:25:00,24.9,15.5,30.17,North,360,8.0,24.0,67,0.00,,---,0.00,VWS V14.01,2013-04-02 14:25:00,
2013-04-02 10:30:00,24.7,15.7,30.17,North,360,10.0,24.0,68,0.00,,---,0.00,VWS V14.01,2013-04-02 14:30:00,
2013-04-02 10:35:00,24.9,15.5,30.17,North,360,4.0,24.0,67,0.00,,---,0.00,VWS V14.01,2013-04-02 14:35:00,
2013-04-02 10:40:00,24.7,16.0,30.17,North,360,10.0,24.0,69,0.00,,---,0.00,VWS V14.01,2013-04-02 14:40:00,
2013-04-02 10:45:00,24.8,15.8,30.17,North,360,6.0,24.0,68,0.00,,---,0.00,VWS V14.01,2013-04-02 14:45:00,
2013-04-02 10:50:00,25.0,15.6,30.17,North,360,12.0,24.0,67,0.00,,---,0.00,VWS V14.01,2013-04-02 14:50:00,
2013-04-02 10:55:00,25.1,15.7,30.17,North,360,3.0,24.0,67,0.00,,---,0.00,VWS V14.01,2013-04-02 14:55:00,
2013-04-02 11:00:00,25.1,15.7,30.17,North,360,15.0,24.0,67,0.00,,---,0.00,VWS V14.01,2013-04-02 15:00:00,
2013-04-02 11:05:00,25.1,15.4,30.17,North,360,13.0,24.0,66,0.00,,---,0.00,VWS V14.01,2013-04-02 15:05:00,
2013-04-02 11:10:00,25.1,16.4,30.17,North,360,10.0,24.0,69,0.00,,---,0.00,VWS V14.01,2013-04-02 15:10:00,
2013-04-02 11:15:00,25.1,15.7,30.17,North,360,10.0,24.0,67,0.00,,---,0.00,VWS V14.01,2013-04-02 15:15:00,
2013-04-02 11:20:00,25.0,15.3,30.17,North,360,17.0,24.0,66,0.00,,---,0.00,VWS V14.01,2013-04-02 15:20:00,
2013-04-02 11:25:00,25.1,16.4,30.18,North,360,12.0,24.0,69,0.00,,---,0.00,VWS V14.01,2013-04-02 15:25:00,
2013-04-02 11:30:00,25.1,16.0,30.18,North,360,13.0,24.0,68,0.00,,---,0.00,VWS V14.01,2013-04-02 15:30:00,
2013-04-02 11:35:00,25.1,16.0,30.18,NW,317,11.0,24.0,68,0.00,,---,0.00,VWS V14.01,2013-04-02 15:35:00,
2013-04-02 11:40:00,25.1,15.7,30.18,ENE,72,2.0,24.0,67,0.00,,---,0.00,VWS V14.01,2013-04-02 15:40:00,
2013-04-02 11:45:00,25.1,15.4,30.19,North,360,11.0,24.0,66,0.00,,---,0.00,VWS V14.01,2013-04-02 15:45:00,
2013-04-02 11:50:00,24.9,15.9,30.18,North,360,11.0,24.0,68,0.00,,---,0.00,VWS V14.01,2013-04-02 15:50:00,
2013-04-02 11:55:00,24.9,15.5,30.19,North,360,14.0,24.0,67,0.00,,---,0.00,VWS V14.01,2013-04-02 15:55:00,
2013-04-02 12:00:00,25.0,14.9,30.19,North,360,8.0,12.0,65,0.00,,---,0.00,VWS V14.01,2013-04-02 16:00:00,
2013-04-02 12:05:00,24.9,16.2,30.19,North,360,10.0,20.0,69,0.00,,---,0.00,VWS V14.01,2013-04-02 16:05:00,
2013-04-02 12:10:00,25.1,16.4,30.19,North,360,6.0,20.0,69,0.00,,---,0.00,VWS V14.01,2013-04-02 16:10:00,
2013-04-02 12:15:00,25.3,16.2,30.19,North,360,5.0,20.0,68,0.00,,---,0.00,VWS V14.01,2013-04-02 16:15:00,
2013-04-02 12:20:00,25.2,15.8,30.19,North,360,13.0,20.0,67,0.00,,---,0.00,VWS V14.01,2013-04-02 16:20:00,
2013-04-02 12:25:00,25.0,14.9,30.19,North,360,5.0,20.0,65,0.00,,---,0.00,VWS V14.01,2013-04-02 16:25:00,
2013-04-02 12:30:00,25.0,15.9,30.20,North,360,2.0,20.0,68,0.00,,---,0.00,VWS V14.01,2013-04-02 16:30:00,
2013-04-02 12:35:00,24.9,14.8,30.19,NW,313,15.0,20.0,65,0.00,,---,0.00,VWS V14.01,2013-04-02 16:35:00,
2013-04-02 12:40:00,25.0,14.6,30.20,North,360,6.0,23.0,64,0.00,,---,0.00,VWS V14.01,2013-04-02 16:40:00,
2013-04-02 12:45:00,25.2,14.4,30.20,North,360,6.0,23.0,63,0.00,,---,0.00,VWS V14.01,2013-04-02 16:45:00,
2013-04-02 12:50:00,25.4,14.6,30.20,North,360,14.0,23.0,63,0.00,,---,0.00,VWS V14.01,2013-04-02 16:50:00,
2013-04-02 12:55:00,25.4,14.2,30.20,North,360,9.0,23.0,62,0.00,,---,0.00,VWS V14.01,2013-04-02 16:55:00,
2013-04-02 13:00:00,25.5,15.4,30.19,North,360,7.0,23.0,65,0.00,,---,0.00,VWS V14.01,2013-04-02 17:00:00,
2013-04-02 13:05:00,25.6,16.2,30.19,North,360,4.0,23.0,67,0.00,,---,0.00,VWS V14.01,2013-04-02 17:05:00,
2013-04-02 13:10:00,25.7,15.9,30.20,North,360,2.0,23.0,66,0.00,,---,0.00,VWS V14.01,2013-04-02 17:10:00,
2013-04-02 13:15:00,26.0,15.9,30.20,North,360,9.0,23.0,65,0.00,,---,0.00,VWS V14.01,2013-04-02 17:15:00,
2013-04-02 13:20:00,25.9,15.8,30.20,North,360,9.0,23.0,65,0.00,,---,0.00,VWS V14.01,2013-04-02 17:20:00,
2013-04-02 13:25:00,26.1,15.6,30.19,North,360,8.0,23.0,64,0.00,,---,0.00,VWS V14.01,2013-04-02 17:25:00,
2013-04-02 13:30:00,26.1,15.2,30.19,North,360,9.0,23.0,63,0.00,,---,0.00,VWS V14.01,2013-04-02 17:30:00,
2013-04-02 13:35:00,26.1,16.3,30.19,North,360,14.0,23.0,66,0.00,,---,0.00,VWS V14.01,2013-04-02 17:35:00,
2013-04-02 13:40:00,26.0,15.1,30.19,North,360,11.0,23.0,63,0.00,,---,0.00,VWS V14.01,2013-04-02 17:40:00,
2013-04-02 13:45:00,26.0,16.2,30.19,North,360,22.0,23.0,66,0.00,,---,0.00,VWS V14.01,2013-04-02 17:45:00,
2013-04-02 13:51:00,25.9,16.8,30.19,North,360,5.0,23.0,68,0.00,,---,0.00,VWS V14.01,2013-04-02 17:51:00,
2013-04-02 13:56:00,25.9,15.4,30.19,North,360,14.0,23.0,64,0.00,,---,0.00,VWS V14.01,2013-04-02 17:56:00,
2013-04-02 14:01:00,26.1,16.3,30.19,North,360,14.0,19.0,66,0.00,,---,0.00,VWS V14.01,2013-04-02 18:01:00,
2013-04-02 14:06:00,26.2,17.4,30.19,North,360,14.0,20.0,69,0.00,,---,0.00,VWS V14.01,2013-04-02 18:06:00,
2013-04-02 14:11:00,26.3,16.9,30.19,North,360,19.0,23.0,67,0.00,,---,0.00,VWS V14.01,2013-04-02 18:11:00,
2013-04-02 14:16:00,26.2,17.1,30.20,North,360,11.0,23.0,68,0.00,,---,0.00,VWS V14.01,2013-04-02 18:16:00,
2013-04-02 14:21:00,26.3,16.1,30.20,North,360,10.0,23.0,65,0.00,,---,0.00,VWS V14.01,2013-04-02 18:21:00,
2013-04-02 14:26:00,26.4,17.3,30.20,North,360,23.0,23.0,68,0.00,,---,0.00,VWS V14.01,2013-04-02 18:26:00,
2013-04-02 14:31:00,26.5,16.3,30.20,North,360,12.0,23.0,65,0.00,,---,0.00,VWS V14.01,2013-04-02 18:31:00,
2013-04-02 14:37:00,26.6,16.1,30.20,North,360,4.0,23.0,64,0.00,,---,0.00,VWS V14.01,2013-04-02 18:37:00,
2013-04-02 14:42:00,26.7,16.2,30.20,North,360,6.0,23.0,64,0.00,,---,0.00,VWS V14.01,2013-04-02 18:42:00,
2013-04-02 14:47:00,26.7,16.9,30.20,North,360,16.0,24.0,66,0.00,,---,0.00,VWS V14.01,2013-04-02 18:47:00,
2013-04-02 14:52:00,26.5,15.3,30.19,East,94,12.0,26.0,62,0.00,,---,0.00,VWS V14.01,2013-04-02 18:52:00,
2013-04-02 14:57:00,26.7,16.2,30.19,North,360,18.0,26.0,64,0.00,,---,0.00,VWS V14.01,2013-04-02 18:57:00,
2013-04-02 15:02:00,26.8,14.8,30.19,East,90,10.0,26.0,60,0.00,,---,0.00,VWS V14.01,2013-04-02 19:02:00,
2013-04-02 15:07:00,26.8,15.5,30.19,North,360,13.0,26.0,62,0.00,,---,0.00,VWS V14.01,2013-04-02 19:07:00,
2013-04-02 15:12:00,26.9,16.7,30.19,NE,51,17.0,26.0,65,0.00,,---,0.00,VWS V14.01,2013-04-02 19:12:00,
2013-04-02 15:17:00,26.9,16.0,30.20,North,360,11.0,26.0,63,0.00,,---,0.00,VWS V14.01,2013-04-02 19:17:00,
2013-04-02 15:22:00,26.9,16.0,30.20,North,360,20.0,26.0,63,0.00,,---,0.00,VWS V14.01,2013-04-02 19:22:00,
2013-04-02 15:28:00,26.8,15.9,30.20,ENE,74,13.0,27.0,63,0.00,,---,0.00,VWS V14.01,2013-04-02 19:28:00,
2013-04-02 15:33:00,26.9,16.4,30.20,North,360,18.0,27.0,64,0.00,,---,0.00,VWS V14.01,2013-04-02 19:33:00,
2013-04-02 15:38:00,27.1,16.6,30.20,North,360,19.0,27.0,64,0.00,,---,0.00,VWS V14.01,2013-04-02 19:38:00,
2013-04-02 15:43:00,27.0,15.7,30.20,North,360,18.0,27.0,62,0.00,,---,0.00,VWS V14.01,2013-04-02 19:43:00,
2013-04-02 15:48:00,27.0,15.4,30.20,North,360,5.0,27.0,61,0.00,,---,0.00,VWS V14.01,2013-04-02 19:48:00,
2013-04-02 15:53:00,27.2,15.6,30.20,North,360,10.0,27.0,61,0.00,,---,0.00,VWS V14.01,2013-04-02 19:53:00,
2013-04-02 15:58:00,27.1,15.8,30.20,North,360,12.0,27.0,62,0.00,,---,0.00,VWS V14.01,2013-04-02 19:58:00,
2013-04-02 16:03:00,27.0,16.1,30.20,North,360,12.0,26.0,63,0.00,,---,0.00,VWS V14.01,2013-04-02 20:03:00,
2013-04-02 16:08:00,27.1,15.8,30.19,North,360,18.0,34.0,62,0.00,,---,0.00,VWS V14.01,2013-04-02 20:08:00,
2013-04-02 16:13:00,27.1,15.8,30.20,North,360,13.0,34.0,62,0.00,,---,0.00,VWS V14.01,2013-04-02 20:13:00,
2013-04-02 16:18:00,26.9,14.9,30.20,North,360,14.0,34.0,60,0.00,,---,0.00,VWS V14.01,2013-04-02 20:18:00,
2013-04-02 16:23:00,26.9,15.6,30.20,East,84,11.0,34.0,62,0.00,,---,0.00,VWS V14.01,2013-04-02 20:23:00,
2013-04-02 16:28:00,26.9,16.0,30.20,North,360,15.0,34.0,63,0.00,,---,0.00,VWS V14.01,2013-04-02 20:28:00,
2013-04-02 16:33:00,26.9,14.1,30.20,North,360,23.0,34.0,58,0.00,,---,0.00,VWS V14.01,2013-04-02 20:33:00,
2013-04-02 16:38:00,26.9,14.5,30.20,North,360,17.0,34.0,59,0.00,,---,0.00,VWS V14.01,2013-04-02 20:38:00,
2013-04-02 16:43:00,27.0,15.7,30.20,North,360,19.0,34.0,62,0.00,,---,0.00,VWS V14.01,2013-04-02 20:43:00,
2013-04-02 16:48:00,27.0,15.0,30.21,North,360,17.0,34.0,60,0.00,,---,0.00,VWS V14.01,2013-04-02 20:48:00,
2013-04-02 16:53:00,27.0,16.5,30.21,North,360,12.0,34.0,64,0.00,,---,0.00,VWS V14.01,2013-04-02 20:53:00,
2013-04-02 16:58:00,27.0,15.4,30.21,North,360,7.0,34.0,61,0.00,,---,0.00,VWS V14.01,2013-04-02 20:58:00,
2013-04-02 17:04:00,26.9,15.6,30.21,North,360,11.0,34.0,62,0.00,,---,0.00,VWS V14.01,2013-04-02 21:04:00,
2013-04-02 17:09:00,26.7,13.9,30.21,North,360,22.0,34.0,58,0.00,,---,0.00,VWS V14.01,2013-04-02 21:09:00,
2013-04-02 17:14:00,26.7,14.3,30.22,North,360,14.0,34.0,59,0.00,,---,0.00,VWS V14.01,2013-04-02 21:14:00,
2013-04-02 17:19:00,26.6,14.2,30.22,North,360,8.0,34.0,59,0.00,,---,0.00,VWS V14.01,2013-04-02 21:19:00,
2013-04-02 17:24:00,26.7,14.7,30.22,North,360,21.0,34.0,60,0.00,,---,0.00,VWS V14.01,2013-04-02 21:24:00,
2013-04-02 17:29:00,26.7,13.5,30.22,North,360,18.0,34.0,57,0.00,,---,0.00,VWS V14.01,2013-04-02 21:29:00,
2013-04-02 17:34:00,26.7,15.4,30.22,North,360,16.0,34.0,62,0.00,,---,0.00,VWS V14.01,2013-04-02 21:34:00,
2013-04-02 17:39:00,27.0,13.8,30.22,East,92,15.0,34.0,57,0.00,,---,0.00,VWS V14.01,2013-04-02 21:39:00,
2013-04-02 17:44:00,27.0,15.4,30.22,North,360,25.0,34.0,61,0.00,,---,0.00,VWS V14.01,2013-04-02 21:44:00,
2013-04-02 17:49:00,27.0,14.6,30.22,North,360,13.0,34.0,59,0.00,,---,0.00,VWS V14.01,2013-04-02 21:49:00,
2013-04-02 17:54:00,27.2,15.6,30.22,NW,315,18.0,34.0,61,0.00,,---,0.00,VWS V14.01,2013-04-02 21:54:00,
2013-04-02 17:59:00,27.2,15.9,30.23,North,360,21.0,34.0,62,0.00,,---,0.00,VWS V14.01,2013-04-02 21:59:00,
2013-04-02 18:04:00,27.3,16.4,30.23,North,360,17.0,27.0,63,0.00,,---,0.00,VWS V14.01,2013-04-02 22:04:00,
2013-04-02 18:09:00,27.5,16.6,30.23,North,360,11.0,27.0,63,0.00,,---,0.00,VWS V14.01,2013-04-02 22:09:00,
2013-04-02 18:14:00,27.4,15.7,30.23,North,360,18.0,28.0,61,0.00,,---,0.00,VWS V14.01,2013-04-02 22:14:00,
2013-04-02 18:19:00,27.5,16.2,30.23,East,99,15.0,28.0,62,0.00,,---,0.00,VWS V14.01,2013-04-02 22:19:00,
2013-04-02 18:24:00,27.6,15.9,30.23,North,360,23.0,28.0,61,0.00,,---,0.00,VWS V14.01,2013-04-02 22:24:00,
2013-04-02 18:29:00,27.6,15.6,30.23,North,360,12.0,32.0,60,0.00,,---,0.00,VWS V14.01,2013-04-02 22:29:00,
2013-04-02 18:34:00,27.7,16.8,30.23,North,360,14.0,32.0,63,0.00,,---,0.00,VWS V14.01,2013-04-02 22:34:00,
2013-04-02 18:39:00,27.7,15.6,30.23,North,360,12.0,32.0,60,0.00,,---,0.00,VWS V14.01,2013-04-02 22:39:00,
2013-04-02 18:44:00,27.8,16.1,30.23,North,360,11.0,32.0,61,0.00,,---,0.00,VWS V14.01,2013-04-02 22:44:00,
2013-04-02 18:49:00,27.8,15.0,30.23,North,360,13.0,32.0,58,0.00,,---,0.00,VWS V14.01,2013-04-02 22:49:00,
2013-04-02 18:54:00,27.7,14.5,30.23,North,360,9.0,32.0,57,0.00,,---,0.00,VWS V14.01,2013-04-02 22:54:00,
2013-04-02 18:59:00,27.8,15.7,30.24,North,360,17.0,32.0,60,0.00,,---,0.00,VWS V14.01,2013-04-02 22:59:00,
2013-04-02 19:04:00,27.8,15.0,30.23,North,360,20.0,32.0,58,0.00,,---,0.00,VWS V14.01,2013-04-02 23:04:00,
2013-04-02 19:09:00,27.8,15.0,30.24,North,360,9.0,32.0,58,0.00,,---,0.00,VWS V14.01,2013-04-02 23:09:00,
2013-04-02 19:14:00,27.8,15.7,30.24,North,360,12.0,32.0,60,0.00,,---,0.00,VWS V14.01,2013-04-02 23:14:00,
2013-04-02 19:19:00,27.9,15.8,30.24,North,360,10.0,32.0,60,0.00,,---,0.00,VWS V14.01,2013-04-02 23:19:00,
2013-04-02 19:24:00,28.0,15.9,30.24,North,360,23.0,32.0,60,0.00,,---,0.00,VWS V14.01,2013-04-02 23:24:00,
2013-04-02 19:29:00,28.0,16.7,30.24,North,360,17.0,32.0,62,0.00,,---,0.00,VWS V14.01,2013-04-02 23:29:00,
2013-04-02 19:34:00,27.9,15.8,30.24,North,360,12.0,32.0,60,0.00,,---,0.00,VWS V14.01,2013-04-02 23:34:00,
2013-04-02 19:39:00,27.9,15.1,30.24,North,360,18.0,32.0,58,0.00,,---,0.00,VWS V14.01,2013-04-02 23:39:00,
2013-04-02 19:44:00,27.9,15.1,30.24,North,360,9.0,32.0,58,0.00,,---,0.00,VWS V14.01,2013-04-02 23:44:00,
2013-04-02 19:49:00,28.0,15.9,30.24,North,360,11.0,32.0,60,0.00,,---,0.00,VWS V14.01,2013-04-02 23:49:00,
2013-04-02 19:54:00,28.0,16.7,30.24,North,360,4.0,32.0,62,0.00,,---,0.00,VWS V14.01,2013-04-02 23:54:00,
2013-04-02 19:59:00,28.0,15.9,30.24,WNW,296,10.0,32.0,60,0.00,,---,0.00,VWS V14.01,2013-04-02 23:59:00,
2013-04-02 20:04:00,28.1,16.4,30.24,North,360,3.0,20.0,61,0.00,,---,0.00,VWS V14.01,2013-04-03 00:04:00,
2013-04-02 20:09:00,28.0,16.3,30.24,North,360,12.0,21.0,61,0.00,,---,0.00,VWS V14.01,2013-04-03 00:09:00,
2013-04-02 20:14:00,28.1,17.5,30.24,North,360,4.0,23.0,64,0.00,,---,0.00,VWS V14.01,2013-04-03 00:14:00,
2013-04-02 20:19:00,28.1,17.1,30.24,North,360,18.0,23.0,63,0.00,,---,0.00,VWS V14.01,2013-04-03 00:19:00,
2013-04-02 20:24:00,28.1,17.1,30.24,North,360,17.0,23.0,63,0.00,,---,0.00,VWS V14.01,2013-04-03 00:24:00,
2013-04-02 20:29:00,28.2,16.1,30.24,North,360,17.0,23.0,60,0.00,,---,0.00,VWS V14.01,2013-04-03 00:29:00,
2013-04-02 20:34:00,28.1,15.2,30.24,North,360,6.0,23.0,58,0.00,,---,0.00,VWS V14.01,2013-04-03 00:34:00,
2013-04-02 20:39:00,28.1,16.4,30.24,North,360,13.0,25.0,61,0.00,,---,0.00,VWS V14.01,2013-04-03 00:39:00,
2013-04-02 20:44:00,28.1,15.6,30.24,North,360,6.0,25.0,59,0.00,,---,0.00,VWS V14.01,2013-04-03 00:44:00,
2013-04-02 20:49:00,28.3,16.6,30.25,East,95,12.0,25.0,61,0.00,,---,0.00,VWS V14.01,2013-04-03 00:49:00,
2013-04-02 20:55:00,28.4,16.7,30.25,North,360,4.0,26.0,61,0.00,,---,0.00,VWS V14.01,2013-04-03 00:55:00,
2013-04-02 21:00:00,28.4,16.7,30.24,North,360,15.0,26.0,61,0.00,,---,0.00,VWS V14.01,2013-04-03 01:00:00,
2013-04-02 21:05:00,28.4,14.3,30.25,North,360,25.0,26.0,55,0.00,,---,0.00,VWS V14.01,2013-04-03 01:05:00,
2013-04-02 21:10:00,28.2,13.7,30.25,North,360,12.0,26.0,54,0.00,,---,0.00,VWS V14.01,2013-04-03 01:10:00,
2013-04-02 21:15:00,28.3,13.8,30.25,North,360,12.0,26.0,54,0.00,,---,0.00,VWS V14.01,2013-04-03 01:15:00,
2013-04-02 21:20:00,28.3,14.6,30.25,North,360,9.0,26.0,56,0.00,,---,0.00,VWS V14.01,2013-04-03 01:20:00,
2013-04-02 21:25:00,28.2,13.7,30.25,North,360,19.0,26.0,54,0.00,,---,0.00,VWS V14.01,2013-04-03 01:25:00,
2013-04-02 21:30:00,28.3,14.6,30.25,North,360,9.0,26.0,56,0.00,,---,0.00,VWS V14.01,2013-04-03 01:30:00,
2013-04-02 21:35:00,28.1,14.0,30.25,North,360,5.0,26.0,55,0.00,,---,0.00,VWS V14.01,2013-04-03 01:35:00,
2013-04-02 21:40:00,28.3,14.6,30.25,North,360,7.0,26.0,56,0.00,,---,0.00,VWS V14.01,2013-04-03 01:40:00,
2013-04-02 21:45:00,28.3,14.2,30.25,ESE,121,5.0,26.0,55,0.00,,---,0.00,VWS V14.01,2013-04-03 01:45:00,
2013-04-02 21:50:00,28.1,14.4,30.25,North,360,11.0,26.0,56,0.00,,---,0.00,VWS V14.01,2013-04-03 01:50:00,
2013-04-02 21:55:00,28.1,14.0,30.25,North,360,12.0,26.0,55,0.00,,---,0.00,VWS V14.01,2013-04-03 01:55:00,
2013-04-02 22:00:00,28.2,15.7,30.26,North,360,8.0,26.0,59,0.00,,---,0.00,VWS V14.01,2013-04-03 02:00:00,
2013-04-02 22:05:00,28.1,14.4,30.26,North,360,13.0,21.0,56,0.00,,---,0.00,VWS V14.01,2013-04-03 02:05:00,
2013-04-02 22:10:00,28.0,13.5,30.26,North,360,10.0,21.0,54,0.00,,---,0.00,VWS V14.01,2013-04-03 02:10:00,
2013-04-02 22:15:00,28.0,13.5,30.26,North,360,11.0,21.0,54,0.00,,---,0.00,VWS V14.01,2013-04-03 02:15:00,
2013-04-02 22:20:00,28.0,14.3,30.27,North,360,12.0,21.0,56,0.00,,---,0.00,VWS V14.01,2013-04-03 02:20:00,
2013-04-02 22:25:00,28.1,15.2,30.27,North,360,10.0,21.0,58,0.00,,---,0.00,VWS V14.01,2013-04-03 02:25:00,
2013-04-02 22:30:00,28.2,13.7,30.27,North,360,10.0,21.0,54,0.00,,---,0.00,VWS V14.01,2013-04-03 02:30:00,
2013-04-02 22:35:00,28.1,15.6,30.26,North,360,11.0,21.0,59,0.00,,---,0.00,VWS V14.01,2013-04-03 02:35:00,
2013-04-02 22:40:00,28.5,14.8,30.26,North,360,13.0,21.0,56,0.00,,---,0.00,VWS V14.01,2013-04-03 02:40:00,
2013-04-02 22:45:00,28.7,14.6,30.26,NNW,348,16.0,28.0,55,0.00,,---,0.00,VWS V14.01,2013-04-03 02:45:00,
2013-04-02 22:50:00,28.7,15.4,30.26,North,360,11.0,28.0,57,0.00,,---,0.00,VWS V14.01,2013-04-03 02:50:00,
2013-04-02 22:55:00,28.5,14.8,30.27,North,360,4.0,28.0,56,0.00,,---,0.00,VWS V14.01,2013-04-03 02:55:00,
2013-04-02 23:00:00,28.4,14.3,30.26,North,360,6.0,28.0,55,0.00,,---,0.00,VWS V14.01,2013-04-03 03:00:00,
2013-04-02 23:05:00,28.2,15.3,30.26,North,360,13.0,28.0,58,0.00,,---,0.00,VWS V14.01,2013-04-03 03:05:00,
2013-04-02 23:10:00,28.4,14.7,30.26,North,360,9.0,28.0,56,0.00,,---,0.00,VWS V14.01,2013-04-03 03:10:00,
2013-04-02 23:15:00,28.4,15.1,30.27,North,360,4.0,28.0,57,0.00,,---,0.00,VWS V14.01,2013-04-03 03:15:00,
2013-04-02 23:20:00,28.7,15.4,30.27,North,360,18.0,28.0,57,0.00,,---,0.00,VWS V14.01,2013-04-03 03:20:00,
2013-04-02 23:25:00,28.7,14.6,30.26,North,360,16.0,28.0,55,0.00,,---,0.00,VWS V14.01,2013-04-03 03:25:00,
2013-04-02 23:30:00,28.6,16.9,30.26,North,360,9.0,28.0,61,0.00,,---,0.00,VWS V14.01,2013-04-03 03:30:00,
2013-04-02 23:36:00,28.6,15.7,30.26,North,360,17.0,28.0,58,0.00,,---,0.00,VWS V14.01,2013-04-03 03:36:00,
2013-04-02 23:41:00,28.8,14.7,30.27,North,360,19.0,28.0,55,0.00,,---,0.00,VWS V14.01,2013-04-03 03:41:00,
2013-04-02 23:46:00,28.8,15.9,30.26,North,360,21.0,28.0,58,0.00,,---,0.00,VWS V14.01,2013-04-03 03:46:00,
2013-04-02 23:51:00,28.8,16.7,30.27,North,360,14.0,28.0,60,0.00,,---,0.00,VWS V14.01,2013-04-03 03:51:00,
2013-04-02 23:56:00,28.8,16.7,30.27,North,360,10.0,28.0,60,0.00,,---,0.00,VWS V14.01,2013-04-03 03:56:00,